Location: St. Louis
(38.6270°N, 90.1994°W)
Time: 22:48:34
(UTC-06:00)

NOAA 15 - Visible Passes

Search period start: 24 January 2022 00:00
Search period end: 03 February 2022 00:00
Orbit: 797 x 812 km, 98.7° (Epoch: 24 January)

Date Brightness Start Highest point End Pass type
(mag) Time Alt. Az. Time Alt. Az. Time Alt. Az.
24 Jan 4.8 18:22:50 10° SE 18:27:46 44° ENE 18:32:44 10° N visible
24 Jan 6.9 20:03:48 10° SW 20:07:42 21° W 20:11:38 10° NW visible
25 Jan 7.5 06:40:00 10° NE 06:43:39 19° E 06:47:17 10° SE visible
25 Jan 5.5 17:58:28 10° ESE 18:02:44 26° ENE 18:07:03 10° NNE visible
25 Jan 6.0 19:37:31 10° SSW 19:42:18 36° W 19:47:09 10° NNW visible
26 Jan 5.0 19:11:49 10° S 19:17:00 64° WSW 19:22:14 10° NNW visible
27 Jan 4.5 18:46:34 10° SSE 18:51:47 75° ENE 18:57:03 10° N visible
27 Jan 7.6 20:30:08 10° WSW 20:32:05 12° W 20:34:02 10° WNW visible
28 Jan 4.9 18:21:45 10° SE 18:26:41 43° ENE 18:31:37 10° N visible
28 Jan 6.9 20:02:37 10° SW 20:06:35 22° W 20:10:35 10° NW visible
29 Jan 7.5 06:38:57 10° NE 06:42:33 18° E 06:46:08 10° SE visible
29 Jan 5.5 17:57:23 10° ESE 18:01:39 26° ENE 18:05:55 10° NNE visible
29 Jan 6.0 19:36:22 10° SSW 19:41:12 37° W 19:46:04 10° NNW visible
30 Jan 4.9 19:10:42 10° S 19:15:54 66° WSW 19:21:09 10° NNW visible
31 Jan 4.5 18:45:28 10° SSE 18:50:41 73° ENE 18:55:57 10° N visible
31 Jan 7.6 20:28:50 10° WSW 20:30:58 12° W 20:33:05 10° WNW visible
01 Feb 4.9 18:20:40 10° SE 18:25:34 42° ENE 18:30:31 10° N visible
01 Feb 6.9 20:01:27 10° SW 20:05:28 22° W 20:09:32 10° NW visible
02 Feb 7.6 06:37:55 10° NE 06:41:26 18° E 06:44:57 10° SE visible
02 Feb 5.5 17:56:20 10° ESE 18:00:33 25° ENE 18:04:48 10° NNE visible
02 Feb 5.9 19:35:14 10° SSW 19:40:05 38° W 19:45:00 10° NNW visible
